Other Surface Observations
Issued by NWS Tucson, AZ

Home | Current Version | Previous Version | Text Only | Print | Product List | Glossary On
Versions: 1 2 3 4 5 6 7 8 9 10 11 12 13 14 15 16 17 18 19 20 21 22 23 24 25 26 27 28 29 30 31 32 33 34 35 36 37 38 39 40 41 42 43 44 45 46 47 48 49 50
861
SXUS55 KTWC 310215
OSOTWC

WEATHER ROUNDUP FOR SOUTHEAST ARIZONA
NATIONAL WEATHER SERVICE TUCSON AZ
715 PM MST MON MAY 30 2016

AZZ504>506-514-310315-
LOCATION       SKY/WX    TMP DP  RH WIND       PRES   REMARKS
TUCSON         CLEAR     88  14   6 W12       29.84S
DAVIS-MONTHAN  CLEAR     87  14   6 W7        29.83R
CHILDRENS PARK N/A      N/A N/A   6 W7                PIMA CO DEQ
ALVERNON/22ND  N/A       91 N/A N/A W10               PIMA CO DEQ
CHERRY/GLENN   N/A      N/A N/A N/A N/A               PIMA CO DEQ
TANGERINE      N/A       91 N/A N/A W8                PIMA CO DEQ
CONTL RANCH    N/A       93  16   6 NW0               PIMA CO DEQ
GRANT/1ST      N/A       91  15   6 W8                PIMA CO DEQ
CRAYCROFT/22ND N/A       91  18   7 W13               PIMA CO DEQ
GOLFLINKS/KOLB N/A      N/A N/A N/A N/A               PIMA CO DEQ
AJO/12TH       N/A       91  15   6 W9                PIMA CO DEQ
SAGUARO EAST   N/A       32 -21   8 W10               PIMA CO DEQ
FAIRGROUNDS    N/A       89 N/A N/A W13               PIMA CO DEQ
SAGUARO        N/A       90  18   7 NW9G15            *SABINO CYN
SAN CARLOS     N/A       90  24   9 W7G15             *SAN CARLOS
GREEN VALLEY   N/A       88  19   8 W10               PIMA CO DEQ
HORSE CAMP CYN N/A       83  21  10 W14G27            *ARAVAIPA CYN
RINCON MTNS    NOT AVBL
$$

AZZ509>511-310315-
LOCATION       SKY/WX    TMP DP  RH WIND       PRES   REMARKS
SAFFORD        CLEAR     87  19   8 NW13G22   29.81R
STRAY HORSE    N/A       65  22  19 W7G17             *
TRAIL CABIN    N/A       75  24  15 W6G14             *N OF GRANVILLE
BLACK HILLS    NOT AVBL
DRY LAKE       N/A       65  20  18 NW3G12            *NATANES MTNS
NOON CREEK     N/A       76  22  13 SW5G11            *PINALENO MTNS
COLUMBINE      N/A       57  21  24 SW6G14            *PINALENO MTNS
GUTHRIE        N/A       75  27  17 W12G23            *SW OF GUTHRIE
$$

AZZ502-503-513-310315-
LOCATION       SKY/WX    TMP DP  RH WIND       PRES   REMARKS
NOGALES        CLEAR     81  25  12 W14G20    29.91S
SELLS          N/A       89  20   8 NE8G16            *
SASABE         N/A       85  11   6 W10G17            *ALTAR VLY
HOPKINS        N/A       70  25  18 W7G19             *SANTA RITA MTNS
CARR CYN       N/A       73  28  19 S3G12             *W OF HEREFORD
$$

AZZ507-508-512-310315-
LOCATION       SKY/WX    TMP DP  RH WIND       PRES   REMARKS
SIERRA VISTA   CLEAR     78  22  12 SW13      29.97R
DOUGLAS        CLEAR     81  33  17 SW18G26   29.92R
EMPIRE MTNS    NOT AVBL
MULESHOE RANCH N/A       84  16   8 NW8G18            *PRESERVE
HEADQUARTERS   NOT AVBL
$$

.............................NOTES.............................
THIS IS AN AUTOMATED COLLECTIVE WITH MINIMAL QUALITY CONTROL.
PIMA CO DEQ SITES HAVE NONSTANDARD WIND SENSOR HEIGHTS.
PIMA CO DEQ SITES DO NOT REPORT WIND GUSTS.
* INDICATES WIND SENSORS LOCATED AT 20 FEET INSTEAD OF 33 FEET.
..............................KEY..............................
SKY/WX - SKY CONDITION/WEATHER
TMP    - TEMPERATURE IN FAHRENHEIT
DP     - DEWPOINT IN FAHRENHEIT
RH     - RELATIVE HUMIDITY IN PERCENT
WIND   - DIRECTION AND SPEED IN MILES PER HOUR (MPH)
VRB    - VARIABLE WIND DIRECTION
PRES   - MEAN SEA LEVEL PRESSURE IN INCHES OF MERCURY
         F - FALLING PRESSURE   R - RISING PRESSURE
         S - STEADY PRESSURE
VSB    - VISIBILITY IN MILES
HX     - HEAT INDEX IN FAHRENHEIT
WCI    - WIND CHILL INDEX IN FAHRENHEIT
N/A    - NOT AVAILABLE
AFB    - AIR FORCE BASE
         DAVIS-MONTHAN IS DAVIS-MONTHAN AIR FORCE BASE
CYN    - CANYON
MTNS   - MOUNTAINS
NCA    - NATIONAL CONSERVATION AREA
NR     - NEAR
VLY    - VALLEY
CONTL  - CONTINENTAL
PIMA CO DEQ - PIMA COUNTY DEPT OF ENVIRONMENTAL QUALITY



USA.gov is the U.S. government's official web portal to all federal, state and local government web resources and services.